Language: 


Des rapports , des résumés tant et plus, au choix de chacun....


Données statistiques de la station
Quotidien Rapport Novembre 12, 2017 Unités:  Anglais    Métrique   les deux
« Précédent Jour
Suivant Jour »
Quotidien Hebdomadaire Mensuel Annuel Actuel
  Haut: Bas: Moyen:
Température: TemperatureC °F 5.7 °F 7.2 °F
Pt de rosée: DewpointC °F 2.0 °F 6.1 °F
Humidité: Humidity % 61 % 91 %
Vitesse du vent: WindSpeedKMH mph 0.0 mph 6.4 mph
Rafales: WindSpeedGustKMH mph - -
Vent:- - WNW
Pression: PressurehPa in 0.0 in -
Précipitation: 9.9 in    
Historical Graphs
 
 
Données statistiques pour Novembre 12, 2017
Heure Température Point de rosée Pression Vent Vitesse du vent Refales Humidité Pluie (taux horaire)
TemperatureC °F DewpointC °F PressurehPa in Calm     Humidity % HourlyPrecipMM in
00:03 7.3 °F 7.0 °F 1011.1 in Calm     98 % 0.0 in
00:08 7.3 °F 7.0 °F 1011.1 in Calm     98 % 0.0 in
00:10 7.3 °F 7.0 °F 1011.1 in Calm     98 % 0.0 in
00:15 7.4 °F 7.0 °F 1011.1 in Calm     98 % 0.0 in
00:20 7.4 °F 7.0 °F 1011.1 in Calm     98 % 0.0 in
00:25 7.4 °F 7.0 °F 1011.1 in Calm     98 % 0.0 in
00:30 7.4 °F 7.0 °F 1011.1 in Calm     98 % 0.0 in
00:35 7.3 °F 7.0 °F 1011.1 in Calm     98 % 0.0 in
00:40 7.2 °F 7.0 °F 1011.1 in Calm     98 % 0.0 in
00:45 7.1 °F 7.0 °F 1010.0 in Calm     98 % 0.0 in
00:50 7.0 °F 7.0 °F 1010.0 in Calm     98 % 0.0 in
00:55 7.0 °F 7.0 °F 1010.0 in Calm     98 % 0.0 in
01:00 7.0 °F 7.0 °F 1010.0 in Calm     98 % 0.0 in
01:06 7.0 °F 7.0 °F 1010.0 in Calm     98 % 0.0 in
01:11 7.0 °F 7.0 °F 1010.0 in Calm     98 % 0.0 in
01:16 6.9 °F 7.0 °F 1010.0 in Calm     98 % 0.0 in
01:21 6.8 °F 7.0 °F 1010.0 in Calm     98 % 0.0 in
01:26 6.8 °F 7.0 °F 1010.0 in Calm     98 % 0.0 in
01:31 6.8 °F 7.0 °F 1010.0 in Calm     98 % 0.0 in
01:36 6.8 °F 7.0 °F 1010.0 in Calm     98 % 0.0 in
01:41 6.9 °F 7.0 °F 1009.0 in Calm     98 % 0.0 in
01:46 6.9 °F 7.0 °F 1009.0 in Calm     98 % 0.0 in
01:51 6.9 °F 7.0 °F 1009.0 in Calm     98 % 0.0 in
01:56 6.9 °F 7.0 °F 1009.0 in Calm     98 % 0.0 in
02:01 6.9 °F 7.0 °F 1009.0 in Calm     98 % 0.0 in
02:06 6.9 °F 7.0 °F 1009.0 in Calm     98 % 0.0 in
02:11 6.8 °F 7.0 °F 1009.0 in Calm     98 % 0.0 in
02:16 6.8 °F 7.0 °F 1009.0 in Calm     98 % 0.0 in
02:21 6.8 °F 7.0 °F 1009.0 in Calm     98 % 0.0 in
02:26 6.8 °F 7.0 °F 1009.0 in Calm     98 % 0.0 in
02:31 6.8 °F 7.0 °F 1009.0 in Calm     98 % 0.0 in
02:36 6.8 °F 7.0 °F 1009.0 in Calm     98 % 0.0 in
02:41 6.8 °F 7.0 °F 1010.0 in Calm     98 % 0.0 in
02:46 6.8 °F 7.0 °F 1010.0 in Calm     98 % 0.0 in
02:51 6.8 °F 7.0 °F 1010.0 in Calm     98 % 0.0 in
02:56 6.8 °F 7.0 °F 1009.0 in Calm     98 % 0.0 in
03:01 6.8 °F 7.0 °F 0.0 in Calm     98 % 0.0 in
03:06 6.8 °F 7.0 °F 1009.0 in Calm     98 % 0.0 in
03:12 6.8 °F 7.0 °F 1008.0 in Calm     98 % 0.0 in
03:17 6.8 °F 7.0 °F 1008.0 in Calm     98 % 0.0 in
03:22 6.9 °F 7.0 °F 1008.0 in Calm     98 % 0.0 in
03:27 6.9 °F 7.0 °F 1008.0 in Calm     98 % 0.0 in
03:32 6.9 °F 7.0 °F 1008.0 in Calm     98 % 0.0 in
03:37 6.9 °F 7.0 °F 1008.0 in Calm     98 % 0.0 in
03:42 6.9 °F 7.0 °F 1007.0 in Calm     98 % 0.0 in
03:47 6.8 °F 7.0 °F 1007.0 in Calm     98 % 0.0 in
03:52 6.8 °F 7.0 °F 1007.0 in Calm     98 % 0.0 in
03:57 6.8 °F 7.0 °F 1007.0 in Calm     98 % 0.0 in
04:02 6.8 °F 7.0 °F 1007.0 in Calm     98 % 0.0 in
04:07 6.8 °F 7.0 °F 1007.0 in Calm     98 % 0.0 in
04:12 6.8 °F 7.0 °F 1007.0 in Calm     98 % 0.0 in
04:17 6.9 °F 7.0 °F 1007.0 in Calm     98 % 0.0 in
04:22 6.9 °F 7.0 °F 1007.0 in Calm     98 % 0.0 in
04:24 6.9 °F 7.0 °F 1007.0 in Calm     98 % 0.0 in
04:28 7.0 °F 7.0 °F 1008.0 in Calm     98 % 0.0 in
04:29 7.0 °F 7.0 °F 1008.0 in Calm     98 % 0.0 in
04:34 7.0 °F 7.0 °F 1008.0 in Calm     98 % 0.0 in
04:39 7.0 °F 7.0 °F 1008.0 in Calm     98 % 0.0 in
04:44 7.0 °F 7.0 °F 1007.0 in Calm     98 % 0.0 in
04:49 7.0 °F 7.0 °F 1007.0 in Calm     98 % 0.0 in
04:55 7.0 °F 7.0 °F 1007.0 in Calm     98 % 0.0 in
05:00 7.0 °F 7.0 °F 1006.0 in Calm     98 % 0.0 in
05:05 6.9 °F 7.0 °F 1006.0 in Calm     98 % 0.3 in
05:10 6.9 °F 7.0 °F 1006.0 in Calm     98 % 0.3 in
05:15 6.9 °F 7.0 °F 1006.0 in Calm     98 % 0.3 in
05:20 6.9 °F 7.0 °F 1006.0 in Calm     98 % 0.3 in
05:25 6.9 °F 7.0 °F 1006.0 in Calm     98 % 0.5 in
05:30 6.9 °F 7.0 °F 1006.0 in Calm     98 % 0.8 in
05:35 6.9 °F 7.0 °F 1006.0 in Calm     98 % 0.8 in
05:40 7.0 °F 7.0 °F 1006.0 in Calm     98 % 0.8 in
05:45 7.0 °F 7.0 °F 1005.0 in Calm     98 % 1.3 in
05:50 7.0 °F 7.0 °F 1005.0 in Calm     98 % 1.3 in
05:55 7.0 °F 7.0 °F 1005.0 in Calm     98 % 1.5 in
06:00 7.0 °F 7.0 °F 1005.0 in Calm     98 % 1.5 in
06:05 7.0 °F 7.0 °F 1005.0 in Calm     98 % 1.3 in
06:10 7.0 °F 7.0 °F 1005.0 in Calm     98 % 1.3 in
06:15 7.0 °F 7.0 °F 1003.9 in Calm     98 % 1.5 in
06:20 7.0 °F 7.0 °F 1003.9 in Calm     98 % 1.5 in
06:25 7.0 °F 7.0 °F 1003.9 in Calm     98 % 1.3 in
06:30 7.0 °F 7.0 °F 1005.0 in Calm     98 % 1.3 in
06:35 7.0 °F 7.0 °F 1005.0 in Calm     98 % 1.3 in
06:40 7.0 °F 7.0 °F 1005.0 in West 2.1 mph 2.1 mph 98 % 1.5 in
06:45 7.0 °F 7.0 °F 1005.0 in West 2.1 mph 2.1 mph 98 % 1.3 in
06:50 7.0 °F 7.0 °F 1005.0 in West 2.1 mph 2.1 mph 98 % 1.3 in
06:55 7.0 °F 7.0 °F 1005.0 in West 2.1 mph 2.1 mph 98 % 1.3 in
07:00 7.0 °F 7.0 °F 1003.9 in West 2.1 mph 2.1 mph 98 % 1.3 in
07:05 7.0 °F 7.0 °F 1003.9 in West 2.1 mph 2.1 mph 98 % 1.5 in
07:10 7.0 °F 7.0 °F 1003.9 in West 2.1 mph 2.1 mph 98 % 1.5 in
07:15 7.0 °F 7.0 °F 1003.9 in Calm   4.0 mph 98 % 1.3 in
07:20 7.0 °F 7.0 °F 1003.9 in Calm   4.0 mph 98 % 1.3 in
07:25 7.0 °F 7.0 °F 1003.9 in Calm     98 % 1.3 in
07:30 7.0 °F 7.0 °F 1005.0 in Calm     98 % 1.3 in
07:35 7.0 °F 7.0 °F 1005.0 in Calm     98 % 1.3 in
07:40 6.9 °F 7.0 °F 1005.0 in Calm     98 % 1.3 in
07:45 6.8 °F 7.0 °F 1005.0 in Calm     98 % 1.3 in
07:50 6.7 °F 7.0 °F 1005.0 in Calm     98 % 1.3 in
07:55 6.7 °F 7.0 °F 1005.0 in Calm     98 % 1.3 in
08:00 6.7 °F 7.0 °F 1005.0 in Calm     98 % 1.5 in
08:05 6.7 °F 7.0 °F 1005.0 in Calm     98 % 1.3 in
08:10 6.7 °F 7.0 °F 1005.0 in Calm     98 % 1.5 in
08:15 6.7 °F 7.0 °F 1005.0 in NW 5.8 mph 5.8 mph 98 % 1.8 in
08:20 6.6 °F 7.0 °F 1005.0 in West 3.2 mph 5.8 mph 98 % 1.8 in
08:21 6.6 °F 7.0 °F 1005.0 in West 2.6 mph 5.8 mph 98 % 1.8 in
08:26 6.6 °F 7.0 °F 1005.0 in West 5.8 mph 5.8 mph 98 % 1.8 in
08:31 6.6 °F 7.0 °F 1005.0 in West 5.8 mph 5.8 mph 98 % 1.8 in
08:36 6.6 °F 7.0 °F 1005.0 in West 5.8 mph 5.8 mph 98 % 1.8 in
08:41 6.6 °F 7.0 °F 1003.9 in Calm   5.8 mph 98 % 1.5 in
08:46 6.6 °F 7.0 °F 1003.9 in West 1.4 mph 5.8 mph 98 % 1.5 in
08:51 6.6 °F 7.0 °F 1003.9 in West 4.0 mph 4.3 mph 98 % 1.3 in
08:56 6.6 °F 7.0 °F 1005.0 in WNW 1.4 mph 4.7 mph 98 % 1.3 in
09:01 6.6 °F 7.0 °F 1005.0 in Calm   7.6 mph 98 % 1.0 in
09:07 6.6 °F 7.0 °F 1005.0 in Calm   7.6 mph 98 % 0.8 in
09:12 6.7 °F 7.0 °F 1003.9 in NW 1.4 mph 7.2 mph 98 % 0.3 in
09:17 6.6 °F 7.0 °F 1003.9 in Calm   4.3 mph 98 % 0.5 in
09:22 6.5 °F 7.0 °F 1003.9 in Calm   4.0 mph 98 % 0.5 in
09:27 6.7 °F 7.0 °F 1003.9 in North 5.8 mph 5.8 mph 98 % 0.3 in
09:32 6.8 °F 7.0 °F 1003.9 in NNW 5.0 mph 5.8 mph 98 % 0.3 in
09:37 6.8 °F 7.0 °F 1003.9 in West 2.6 mph 5.8 mph 98 % 0.3 in
09:42 6.8 °F 7.0 °F 1003.9 in WNW 2.6 mph 5.8 mph 98 % 0.3 in
09:47 7.0 °F 7.0 °F 1003.9 in West 5.0 mph 6.4 mph 98 % 0.3 in
09:52 7.2 °F 7.0 °F 1003.9 in Calm   8.7 mph 98 % 0.3 in
09:57 7.4 °F 7.0 °F 1003.9 in Calm   8.7 mph 98 % 0.3 in
10:02 7.3 °F 7.0 °F 1003.9 in West 5.5 mph 9.7 mph 98 % 0.3 in
10:07 7.4 °F 7.0 °F 1003.9 in West 4.7 mph 9.7 mph 98 % 0.3 in
10:12 7.8 °F 8.0 °F 1003.9 in West 1.4 mph 9.3 mph 98 % 0.3 in
10:17 8.1 °F 8.0 °F 1003.9 in West 8.7 mph 8.7 mph 98 % 0.0 in
10:22 8.1 °F 8.0 °F 1003.9 in West 9.7 mph 10.1 mph 98 % 0.0 in
10:27 8.1 °F 8.0 °F 1003.9 in West 13.0 mph 15.1 mph 98 % 0.0 in
10:32 8.0 °F 8.0 °F 1003.9 in WNW 15.1 mph 15.1 mph 98 % 0.0 in
10:37 8.0 °F 8.0 °F 1003.9 in WSW 6.9 mph 15.1 mph 98 % 0.0 in
10:42 8.0 °F 8.0 °F 1003.9 in WSW 7.6 mph 12.6 mph 98 % 0.0 in
10:47 8.1 °F 8.0 °F 1003.9 in WSW 6.4 mph 12.6 mph 98 % 0.0 in
10:52 8.2 °F 8.0 °F 1003.9 in West 6.4 mph 13.0 mph 98 % 0.0 in
10:57 8.1 °F 8.0 °F 1002.9 in WSW 5.8 mph 13.0 mph 98 % 0.0 in
11:02 8.1 °F 8.0 °F 1002.9 in West 9.3 mph 11.6 mph 98 % 0.0 in
11:07 8.5 °F 9.0 °F 1002.9 in West 9.3 mph 11.6 mph 98 % 0.0 in
11:12 8.7 °F 9.0 °F 1002.9 in West 5.0 mph 9.7 mph 98 % 0.0 in
11:17 9.1 °F 9.0 °F 1002.9 in NW 3.2 mph 9.7 mph 98 % 0.0 in
11:22 9.4 °F 9.0 °F 1002.9 in West 9.7 mph 9.7 mph 98 % 0.0 in
11:27 9.6 °F 9.0 °F 1002.9 in West 9.0 mph 9.7 mph 97 % 0.0 in
11:32 9.6 °F 9.0 °F 1002.9 in West 7.9 mph 18.0 mph 92 % 0.0 in
11:37 9.4 °F 7.0 °F 1002.9 in NW 9.7 mph 18.0 mph 86 % 0.0 in
11:42 9.2 °F 7.0 °F 1002.9 in West 11.9 mph 11.9 mph 82 % 0.0 in
11:47 9.0 °F 6.0 °F 1002.9 in NW 13.0 mph 16.3 mph 80 % 0.0 in
11:52 8.3 °F 5.0 °F 1002.9 in West 9.3 mph 17.2 mph 79 % 0.0 in
11:57 8.2 °F 6.0 °F 1003.9 in North 5.8 mph 20.1 mph 82 % 0.0 in
12:02 8.2 °F 6.0 °F 1003.9 in West 12.6 mph 20.1 mph 84 % 0.0 in
12:07 8.3 °F 6.0 °F 1003.9 in NW 14.0 mph 14.0 mph 85 % 0.0 in
12:12 8.2 °F 6.0 °F 1002.9 in NNE 4.7 mph 15.8 mph 84 % 0.0 in
12:17 8.2 °F 6.0 °F 1002.9 in NNW 5.8 mph 15.8 mph 84 % 0.0 in
12:22 8.7 °F 6.0 °F 1002.9 in NE 13.0 mph 13.7 mph 81 % 0.0 in
12:23 8.7 °F 6.0 °F 1002.9 in NE 13.0 mph 13.7 mph 81 % 0.0 in
12:28 9.0 °F 6.0 °F 1002.9 in NNW 10.5 mph 27.0 mph 79 % 0.0 in
12:33 8.4 °F 5.0 °F 1002.9 in WNW 9.7 mph 27.0 mph 76 % 0.0 in
12:38 8.7 °F 5.0 °F 1002.9 in NNW 13.7 mph 23.8 mph 76 % 0.0 in
12:43 8.9 °F 5.0 °F 1003.9 in NNW 11.1 mph 15.4 mph 74 % 0.0 in
12:48 9.1 °F 5.0 °F 1003.9 in North 8.7 mph 14.3 mph 73 % 0.0 in
12:49 9.0 °F 5.0 °F 1003.9 in South 11.6 mph 14.3 mph 74 % 0.0 in
12:54 9.2 °F 5.0 °F 1003.9 in WNW 6.1 mph 16.9 mph 73 % 0.0 in
12:59 9.5 °F 5.0 °F 1003.9 in West 13.7 mph 17.2 mph 72 % 0.0 in
13:04 9.6 °F 5.0 °F 1003.9 in NW 19.5 mph 19.5 mph 72 % 0.0 in
13:09 9.1 °F 4.0 °F 1003.9 in NNW 15.4 mph 19.5 mph 71 % 0.0 in
13:19 8.9 °F 4.0 °F 1003.9 in NW 12.6 mph 25.6 mph 71 % 0.0 in
13:24 9.4 °F 4.0 °F 1003.9 in WNW 5.5 mph 25.6 mph 70 % 0.0 in
13:30 9.4 °F 4.0 °F 1003.9 in NW 8.7 mph 25.3 mph 68 % 0.0 in
13:35 9.1 °F 3.0 °F 1003.9 in SSE 4.7 mph 25.3 mph 67 % 0.0 in
13:40 9.3 °F 4.0 °F 1003.9 in NNW 4.0 mph 21.9 mph 69 % 0.0 in
13:45 9.0 °F 4.0 °F 1005.0 in WNW 9.3 mph 23.3 mph 68 % 0.0 in
13:50 8.6 °F 3.0 °F 1005.0 in North 16.6 mph 23.8 mph 68 % 0.0 in
13:55 8.3 °F 3.0 °F 1005.0 in WNW 16.6 mph 23.8 mph 67 % 0.0 in
14:00 8.2 °F 3.0 °F 1005.0 in NNW 13.0 mph 20.1 mph 69 % 0.0 in
14:01 8.2 °F 3.0 °F 1005.0 in WNW 12.2 mph 20.1 mph 69 % 0.0 in
14:06 8.0 °F 3.0 °F 1005.0 in North 16.3 mph 20.9 mph 69 % 0.0 in
14:11 8.0 °F 3.0 °F 1005.0 in NW 10.5 mph 20.9 mph 71 % 0.0 in
14:16 8.7 °F 4.0 °F 1005.0 in NE 6.4 mph 17.7 mph 70 % 0.0 in
14:21 9.0 °F 3.0 °F 1005.0 in NNW 8.7 mph 24.8 mph 67 % 0.0 in
14:26 8.8 °F 3.0 °F 1005.0 in SSW 24.8 mph 24.8 mph 63 % 0.0 in
14:31 8.4 °F 2.0 °F 1005.0 in WNW 16.9 mph 24.8 mph 62 % 0.0 in
14:36 8.4 °F 2.0 °F 1005.0 in NW 13.7 mph 24.5 mph 64 % 0.0 in
14:41 8.4 °F 2.0 °F 1005.0 in NNW 9.7 mph 16.9 mph 64 % 0.0 in
14:46 8.6 °F 3.0 °F 1005.0 in WNW 15.4 mph 17.7 mph 64 % 0.0 in
14:51 8.8 °F 3.0 °F 1005.0 in NNW 13.7 mph 18.0 mph 63 % 0.0 in
14:56 8.9 °F 2.0 °F 1003.9 in ENE 10.5 mph 19.8 mph 61 % 0.0 in
15:01 8.8 °F 2.0 °F 1003.9 in North 13.7 mph 20.9 mph 62 % 0.0 in
15:06 9.0 °F 2.0 °F 1003.9 in NNW 4.3 mph 27.0 mph 62 % 0.0 in
15:12 8.6 °F 2.0 °F 1003.9 in WNW 12.2 mph 27.0 mph 62 % 0.0 in
15:17 8.6 °F 2.0 °F 1003.9 in North 19.1 mph 27.4 mph 62 % 0.0 in
15:22 8.5 °F 2.0 °F 1003.9 in NNW 10.1 mph 27.4 mph 62 % 0.0 in
15:27 8.4 °F 2.0 °F 1005.0 in NNW 6.4 mph 30.2 mph 63 % 0.0 in
15:32 8.3 °F 2.0 °F 1005.0 in West 10.5 mph 36.4 mph 62 % 0.0 in
15:37 8.2 °F 2.0 °F 1005.0 in NNW 9.7 mph 36.4 mph 65 % 0.0 in
15:42 8.1 °F 2.0 °F 1005.0 in WNW 9.7 mph 20.6 mph 66 % 0.0 in
15:47 8.0 °F 2.0 °F 1005.0 in ENE 13.0 mph 24.8 mph 66 % 0.0 in
15:52 8.0 °F 3.0 °F 1005.0 in North 8.7 mph 24.8 mph 68 % 0.0 in
15:57 8.0 °F 3.0 °F 1005.0 in WSW 6.9 mph 19.5 mph 69 % 0.0 in
16:02 8.0 °F 3.0 °F 1005.0 in NNW 16.6 mph 19.5 mph 70 % 0.0 in
16:07 8.0 °F 3.0 °F 1005.0 in NNW 13.0 mph 21.2 mph 70 % 0.0 in
16:09 8.0 °F 3.0 °F 1005.0 in NNW 6.1 mph 21.2 mph 70 % 0.0 in
16:14 8.0 °F 3.0 °F 1005.0 in NW 9.3 mph 21.2 mph 71 % 0.0 in
16:19 7.9 °F 3.0 °F 1005.0 in WNW 10.1 mph 19.1 mph 71 % 0.0 in
16:24 7.9 °F 3.0 °F 1005.0 in NNE 8.7 mph 16.9 mph 72 % 0.0 in
16:29 7.7 °F 4.0 °F 1006.0 in NE 9.3 mph 30.6 mph 76 % 0.0 in
16:34 7.3 °F 4.0 °F 1006.0 in NNW 17.2 mph 30.6 mph 79 % 0.0 in
16:39 7.0 °F 4.0 °F 1006.0 in NW 16.9 mph 28.0 mph 82 % 0.0 in
16:44 6.8 °F 5.0 °F 1006.0 in North 7.6 mph 28.0 mph 85 % 0.0 in
16:49 6.8 °F 5.0 °F 1006.0 in WNW 9.0 mph 17.2 mph 86 % 0.0 in
16:54 6.7 °F 5.0 °F 1006.0 in North 9.3 mph 21.2 mph 88 % 0.0 in
16:59 6.7 °F 5.0 °F 1006.0 in North 9.0 mph 21.2 mph 89 % 0.0 in
17:04 6.7 °F 5.0 °F 1006.0 in NW 10.1 mph 20.1 mph 90 % 0.0 in
17:09 6.7 °F 6.0 °F 1006.0 in WNW 5.0 mph 20.1 mph 92 % 0.0 in
17:14 6.8 °F 6.0 °F 1006.0 in WNW 9.0 mph 23.3 mph 92 % 0.0 in
17:19 6.8 °F 6.0 °F 1006.0 in WSW 10.1 mph 23.3 mph 92 % 0.0 in
17:24 6.8 °F 6.0 °F 1006.0 in NNW 12.2 mph 32.0 mph 91 % 0.0 in
17:29 6.8 °F 6.0 °F 1007.0 in NNW 9.3 mph 32.0 mph 91 % 0.3 in
17:34 6.8 °F 6.0 °F 1007.0 in West 10.1 mph 23.3 mph 92 % 0.3 in
17:39 6.8 °F 6.0 °F 1007.0 in North 12.6 mph 23.0 mph 93 % 0.8 in
17:44 6.7 °F 6.0 °F 1007.0 in WNW 12.6 mph 23.0 mph 94 % 0.8 in
17:49 6.7 °F 6.0 °F 1007.0 in NNE 8.7 mph 19.8 mph 94 % 0.8 in
17:54 6.7 °F 6.0 °F 1007.0 in NW 12.2 mph 24.8 mph 94 % 0.8 in
17:59 6.7 °F 6.0 °F 1006.0 in NNW 10.1 mph 38.1 mph 95 % 0.8 in
18:04 6.8 °F 6.0 °F 1006.0 in North 5.8 mph 38.1 mph 95 % 0.8 in
18:09 6.8 °F 6.0 °F 1006.0 in North 11.6 mph 30.9 mph 95 % 0.8 in
18:14 6.8 °F 6.0 °F 1007.0 in North 17.2 mph 36.4 mph 96 % 1.3 in
18:19 6.8 °F 6.0 °F 1007.0 in NW 12.2 mph 36.4 mph 96 % 1.3 in
18:24 6.8 °F 6.0 °F 1007.0 in NNW 22.4 mph 24.5 mph 96 % 1.3 in
18:29 6.8 °F 6.0 °F 1007.0 in North 13.0 mph 24.5 mph 95 % 0.8 in
18:34 6.9 °F 6.0 °F 1007.0 in NNW 20.6 mph 30.6 mph 95 % 0.8 in
18:35 6.9 °F 6.0 °F 1007.0 in WNW 13.0 mph 30.6 mph 95 % 0.8 in
18:40 7.0 °F 6.0 °F 1007.0 in North 16.3 mph 30.6 mph 94 % 0.3 in
18:45 7.1 °F 6.0 °F 1008.0 in NNW 10.1 mph 19.5 mph 94 % 0.3 in
18:50 7.1 °F 6.0 °F 1008.0 in NNW 15.8 mph 28.0 mph 94 % 0.3 in
18:55 7.1 °F 6.0 °F 1009.0 in WNW 5.5 mph 28.0 mph 94 % 0.3 in
19:00 7.1 °F 6.0 °F 1009.0 in North 14.0 mph 24.5 mph 94 % 0.5 in
19:05 7.1 °F 6.0 °F 1009.0 in NNW 10.5 mph 17.2 mph 95 % 0.5 in
19:10 7.1 °F 6.0 °F 1009.0 in NNW 12.6 mph 17.2 mph 95 % 0.5 in
19:15 7.1 °F 6.0 °F 1009.0 in North 14.0 mph 14.0 mph 95 % 0.3 in
19:20 7.1 °F 6.0 °F 1009.0 in WNW 5.0 mph 14.0 mph 95 % 0.3 in
19:26 7.2 °F 7.0 °F 1009.0 in NNW 17.2 mph 23.8 mph 96 % 0.3 in
19:31 7.3 °F 7.0 °F 1009.0 in North 12.6 mph 23.8 mph 96 % 0.8 in
19:36 7.3 °F 7.0 °F 1009.0 in NNE 9.7 mph 23.8 mph 96 % 0.8 in
19:41 7.2 °F 7.0 °F 1009.0 in North 5.5 mph 16.6 mph 96 % 0.8 in
19:46 7.3 °F 7.0 °F 1009.0 in NE 6.9 mph 18.0 mph 96 % 0.8 in
19:51 7.3 °F 7.0 °F 1009.0 in NW 3.2 mph 19.5 mph 95 % 0.8 in
19:56 7.3 °F 7.0 °F 1010.0 in North 8.7 mph 19.5 mph 95 % 0.8 in
20:01 7.2 °F 7.0 °F 1010.0 in North 8.7 mph 16.6 mph 96 % 0.8 in
20:06 7.1 °F 7.0 °F 1010.0 in NNW 16.6 mph 16.9 mph 96 % 0.8 in
20:11 7.1 °F 7.0 °F 1010.0 in NNW 15.1 mph 21.2 mph 96 % 0.8 in
20:16 7.0 °F 6.0 °F 1010.0 in WNW 13.7 mph 28.0 mph 94 % 0.8 in
20:21 7.1 °F 6.0 °F 1010.0 in NNE 9.0 mph 28.0 mph 94 % 0.8 in
20:26 7.1 °F 6.0 °F 1010.0 in NW 19.8 mph 19.8 mph 95 % 0.3 in
20:31 7.1 °F 6.0 °F 1010.0 in ESE 10.5 mph 20.6 mph 95 % 0.3 in
20:36 7.1 °F 6.0 °F 1010.0 in North 10.5 mph 23.8 mph 94 % 0.3 in
20:41 7.0 °F 6.0 °F 1011.1 in NW 13.0 mph 23.8 mph 92 % 0.3 in
20:46 6.8 °F 5.0 °F 1011.1 in NW 14.3 mph 27.0 mph 86 % 0.3 in
20:51 6.7 °F 5.0 °F 1011.1 in NNW 11.6 mph 27.0 mph 87 % 0.3 in
20:56 6.5 °F 5.0 °F 1011.1 in North 12.2 mph 19.5 mph 88 % 0.3 in
21:01 6.4 °F 5.0 °F 1011.1 in NW 6.4 mph 19.5 mph 89 % 0.0 in
21:06 6.4 °F 5.0 °F 1011.1 in North 9.3 mph 16.3 mph 91 % 0.3 in
21:11 6.4 °F 6.0 °F 1011.1 in North 12.2 mph 15.8 mph 93 % 0.3 in
21:16 6.4 °F 6.0 °F 1011.1 in WNW 5.8 mph 13.0 mph 94 % 0.3 in
21:21 6.4 °F 6.0 °F 1011.1 in WNW 9.7 mph 12.2 mph 95 % 0.3 in
21:26 6.5 °F 6.0 °F 1011.1 in North 12.2 mph 12.2 mph 95 % 0.3 in
21:31 6.5 °F 6.0 °F 1011.1 in WSW 8.7 mph 12.6 mph 94 % 0.3 in
21:36 6.6 °F 6.0 °F 1011.1 in NW 13.0 mph 25.9 mph 95 % 0.3 in
21:41 6.6 °F 6.0 °F 1011.1 in North 12.6 mph 25.9 mph 95 % 0.3 in
21:46 6.6 °F 6.0 °F 1011.1 in NNW 9.7 mph 28.0 mph 95 % 0.3 in
21:51 6.5 °F 6.0 °F 1011.1 in WNW 13.7 mph 28.0 mph 95 % 0.3 in
21:56 6.4 °F 6.0 °F 1011.1 in NNW 10.1 mph 21.2 mph 95 % 0.3 in
22:01 6.5 °F 6.0 °F 1011.1 in NNW 5.8 mph 14.0 mph 95 % 0.3 in
22:06 6.6 °F 6.0 °F 1011.1 in NNW 9.0 mph 14.0 mph 95 % 0.0 in
22:11 6.6 °F 6.0 °F 1012.1 in North 7.9 mph 9.3 mph 95 % 0.0 in
22:16 6.6 °F 6.0 °F 1012.1 in North 9.7 mph 9.7 mph 95 % 0.0 in
22:21 6.7 °F 6.0 °F 1012.1 in NNW 7.9 mph 9.7 mph 96 % 0.0 in
22:24 6.6 °F 6.0 °F 1012.1 in NW 17.7 mph 28.0 mph 96 % 0.0 in
22:27 6.4 °F 6.0 °F 1013.1 in NNW 9.3 mph 28.0 mph 95 % 0.3 in
22:31 6.3 °F 6.0 °F 1013.1 in North 7.9 mph 28.0 mph 95 % 0.3 in
22:37 6.3 °F 6.0 °F 1013.1 in NW 8.7 mph 17.7 mph 95 % 0.5 in
22:42 6.3 °F 6.0 °F 1013.1 in NNE 6.4 mph 16.3 mph 95 % 0.5 in
22:43 6.3 °F 6.0 °F 1013.1 in NNE 9.7 mph 16.3 mph 95 % 0.5 in
22:48 6.3 °F 6.0 °F 1013.1 in NNE 9.7 mph 12.6 mph 96 % 0.5 in
22:53 6.3 °F 6.0 °F 1013.1 in WNW 5.8 mph 13.0 mph 96 % 0.5 in
22:58 6.4 °F 6.0 °F 1013.1 in WNW 9.3 mph 13.0 mph 97 % 0.5 in
23:03 6.6 °F 7.0 °F 1013.1 in NNW 16.6 mph 23.3 mph 98 % 0.5 in
23:08 6.3 °F 6.0 °F 1013.1 in WNW 20.9 mph 38.5 mph 96 % 1.3 in
23:13 6.0 °F 6.0 °F 1013.1 in NNW 12.2 mph 38.5 mph 96 % 1.3 in
23:18 6.0 °F 6.0 °F 1013.1 in North 15.4 mph 20.9 mph 95 % 1.5 in
23:23 5.9 °F 6.0 °F 1013.1 in NW 3.2 mph 17.2 mph 95 % 1.8 in
23:28 5.8 °F 6.0 °F 1013.1 in Calm   15.4 mph 96 % 1.5 in
23:33 5.7 °F 6.0 °F 1013.1 in NW 9.7 mph 9.7 mph 96 % 1.3 in
23:38 5.7 °F 6.0 °F 1013.1 in Calm   9.7 mph 96 % 1.3 in
23:43 5.7 °F 6.0 °F 1014.1 in ENE 9.7 mph 9.7 mph 96 % 1.3 in
23:48 5.8 °F 6.0 °F 1014.1 in NW 16.9 mph 16.9 mph 97 % 1.3 in
23:53 5.9 °F 6.0 °F 1014.1 in NNW 6.1 mph 16.9 mph 98 % 1.3 in
23:58 5.9 °F 6.0 °F 1014.1 in North 15.4 mph 16.9 mph 97 % 1.3 in
Le Gheer Warneton
Courtoisie de Weather Underground - 2.25 mb

Mise a jour : 22/02/2018 04:18:11
Généré par Cumulus 1.9.4 (1099)